| time (UTC) | temp C | wind direction | speed KPH | gust KPH | rain 1hr cm | rain 24hr cm | rain mn cm | humidity % | barometer mb |
| 20260507070446 | 2 | 76 | 0.0 | 0.0 | 0.00 | 0.00 | 0.00 | 96 | 1030.7 |
| 20260507065942 | 2 | 76 | 0.0 | 0.0 | 0.00 | 0.00 | 0.00 | 95 | 1030.7 |
| 20260507065439 | 2 | 76 | 0.0 | 0.0 | 0.00 | 0.00 | 0.00 | 95 | 1030.5 |
| 20260507064936 | 2 | 76 | 0.0 | 0.0 | 0.00 | 0.00 | 0.00 | 95 | 1030.6 |
| 20260507064435 | 3 | 76 | 0.0 | 0.0 | 0.00 | 0.00 | 0.00 | 95 | 1030.4 |
| 20260507063932 | 3 | 77 | 0.0 | 0.0 | 0.00 | 0.00 | 0.00 | 95 | 1030.6 |
| 20260507063429 | 3 | 77 | 0.0 | 0.0 | 0.00 | 0.00 | 0.00 | 95 | 1030.7 |
| 20260507062926 | 3 | 78 | 0.0 | 0.0 | 0.00 | 0.00 | 0.00 | 95 | 1030.8 |
| 20260507062423 | 3 | 78 | 0.0 | 0.0 | 0.00 | 0.00 | 0.00 | 95 | 1031.0 |
| 20260507061920 | 3 | 78 | 0.0 | 0.0 | 0.00 | 0.00 | 0.00 | 95 | 1030.9 |
| 20260507061418 | 3 | 78 | 0.0 | 0.0 | 0.00 | 0.00 | 0.00 | 95 | 1031.0 |
| 20260507060917 | 3 | 78 | 0.0 | 0.0 | 0.00 | 0.00 | 0.00 | 95 | 1031.0 |
| 20260507060413 | 3 | 78 | 0.0 | 0.0 | 0.00 | 0.00 | 0.00 | 94 | 1030.9 |
| 20260507055910 | 3 | 78 | 0.0 | 0.0 | 0.00 | 0.00 | 0.00 | 94 | 1031.2 |
| 20260507055405 | 3 | 78 | 0.0 | 0.0 | 0.00 | 0.00 | 0.00 | 94 | 1031.1 |
| 20260507054902 | 3 | 78 | 0.0 | 0.0 | 0.00 | 0.00 | 0.00 | 94 | 1031.0 |
| 20260507054358 | 3 | 78 | 0.0 | 0.0 | 0.00 | 0.00 | 0.00 | 94 | 1031.1 |
| 20260507053855 | 3 | 78 | 0.0 | 0.0 | 0.00 | 0.00 | 0.00 | 94 | 1030.8 |
| 20260507053353 | 3 | 78 | 0.0 | 0.0 | 0.00 | 0.00 | 0.00 | 93 | 1031.1 |
| 20260507052852 | 3 | 78 | 0.0 | 0.0 | 0.00 | 0.00 | 0.00 | 93 | 1031.0 |
| 20260507052348 | 3 | 78 | 0.0 | 0.0 | 0.00 | 0.00 | 0.00 | 93 | 1031.3 |
| 20260507051846 | 3 | 78 | 0.0 | 0.0 | 0.00 | 0.00 | 0.00 | 92 | 1031.2 |
| 20260507051343 | 3 | 78 | 0.0 | 0.0 | 0.00 | 0.00 | 0.00 | 91 | 1031.3 |
| 20260507050839 | 3 | 79 | 0.0 | 0.0 | 0.00 | 0.00 | 0.00 | 91 | 1031.2 |
| 20260507050336 | 3 | 82 | 0.0 | 0.0 | 0.00 | 0.00 | 0.00 | 91 | 1031.1 |
| 20260507045833 | 3 | 85 | 0.0 | 0.0 | 0.00 | 0.00 | 0.00 | 91 | 1031.3 |
| 20260507045330 | 3 | 61 | 1.6 | 1.6 | 0.00 | 0.00 | 0.00 | 93 | 1031.3 |
| 20260507044827 | 4 | 60 | 0.0 | 0.0 | 0.00 | 0.00 | 0.00 | 93 | 1031.1 |
| 20260507044324 | 4 | 60 | 0.0 | 0.0 | 0.00 | 0.00 | 0.00 | 92 | 1031.3 |
| 20260507043819 | 4 | 55 | 0.0 | 0.0 | 0.00 | 0.00 | 0.00 | 91 | 1031.2 |
| 20260507043316 | 4 | 52 | 0.0 | 0.0 | 0.00 | 0.00 | 0.00 | 90 | 1031.1 |
| 20260507042812 | 4 | 43 | 0.0 | 1.6 | 0.00 | 0.00 | 0.00 | 91 | 1031.2 |
| 20260507042308 | 4 | 55 | 0.0 | 1.6 | 0.00 | 0.00 | 0.00 | 91 | 1031.4 |
| 20260507041805 | 4 | 50 | 0.0 | 0.0 | 0.00 | 0.00 | 0.00 | 92 | 1031.1 |
| 20260507041302 | 4 | 56 | 1.6 | 3.2 | 0.00 | 0.00 | 0.00 | 93 | 1030.9 |
| 20260507040759 | 4 | 60 | 0.0 | 0.0 | 0.00 | 0.00 | 0.00 | 93 | 1030.9 |
| 20260507040255 | 4 | 59 | 0.0 | 0.0 | 0.00 | 0.00 | 0.00 | 93 | 1031.2 |
| 20260507035751 | 5 | 48 | 3.2 | 3.2 | 0.00 | 2.34 | 2.34 | 93 | 1031.0 |
| 20260507035246 | 4 | 36 | 1.6 | 3.2 | 0.00 | 2.34 | 2.34 | 93 | 1031.0 |
| 20260507034744 | 5 | 54 | 0.0 | 0.0 | 0.00 | 2.34 | 2.34 | 93 | 1030.7 |
| 20260507034241 | 5 | 45 | 1.6 | 1.6 | 0.00 | 2.34 | 2.34 | 94 | 1031.1 |
| 20260507033740 | 5 | 43 | 1.6 | 1.6 | 0.00 | 2.34 | 2.34 | 93 | 1030.8 |
| 20260507033237 | 5 | 45 | 3.2 | 3.2 | 0.00 | 2.34 | 2.34 | 93 | 1030.7 |
| 20260507032734 | 5 | 40 | 3.2 | 3.2 | 0.00 | 2.34 | 2.34 | 93 | 1030.7 |
| 20260507032230 | 5 | 45 | 1.6 | 1.6 | 0.00 | 2.34 | 2.34 | 94 | 1030.9 |
| 20260507031726 | 5 | 49 | 1.6 | 3.2 | 0.00 | 2.34 | 2.34 | 94 | 1030.6 |
| 20260507031223 | 5 | 55 | 1.6 | 1.6 | 0.00 | 2.34 | 2.34 | 94 | 1030.6 |
| 20260507030720 | 5 | 20 | 3.2 | 3.2 | 0.00 | 2.34 | 2.34 | 94 | 1030.6 |
| 20260507030218 | 5 | 39 | 4.8 | 8.0 | 0.00 | 2.34 | 2.34 | 94 | 1030.6 |
| 20260507025715 | 5 | 41 | 3.2 | 3.2 | 0.00 | 2.34 | 2.34 | 94 | 1030.7 |
| 20260507025212 | 5 | 54 | 0.0 | 0.0 | 0.00 | 2.34 | 2.34 | 94 | 1030.7 |
| 20260507024710 | 5 | 331 | 1.6 | 1.6 | 0.00 | 2.34 | 2.34 | 93 | 1030.4 |
| 20260507024207 | 5 | 37 | 1.6 | 1.6 | 0.00 | 2.34 | 2.34 | 93 | 1030.6 |
| 20260507023702 | 5 | 220 | 4.8 | 4.8 | 0.00 | 2.34 | 2.34 | 93 | 1030.4 |
| 20260507023159 | 5 | 302 | 3.2 | 4.8 | 0.00 | 2.34 | 2.34 | 93 | 1030.7 |
| 20260507022656 | 5 | 11 | 3.2 | 3.2 | 0.00 | 2.34 | 2.34 | 93 | 1030.6 |
| 20260507022152 | 5 | 28 | 1.6 | 1.6 | 0.00 | 2.34 | 2.34 | 93 | 1030.5 |
| 20260507021649 | 5 | 0 | 4.8 | 8.0 | 0.00 | 2.34 | 2.34 | 93 | 1030.7 |
| 20260507021144 | 6 | 48 | 1.6 | 1.6 | 0.00 | 2.34 | 2.34 | 92 | 1030.4 |
| 20260507020643 | 6 | 52 | 1.6 | 1.6 | 0.00 | 2.34 | 2.34 | 92 | 1030.5 |
| 20260507020138 | 6 | 27 | 0.0 | 1.6 | 0.00 | 2.34 | 2.34 | 91 | 1030.7 |
| 20260507015637 | 6 | 47 | 0.0 | 1.6 | 0.00 | 2.34 | 2.34 | 91 | 1030.4 |
| 20260507015134 | 6 | 274 | 8.0 | 11.3 | 0.00 | 2.34 | 2.34 | 90 | 1030.7 |
| 20260507014630 | 6 | 30 | 3.2 | 3.2 | 0.00 | 2.34 | 2.34 | 91 | 1030.5 |
| 20260507014126 | 6 | 350 | 3.2 | 3.2 | 0.00 | 2.34 | 2.34 | 91 | 1030.4 |
| 20260507013623 | 6 | 0 | 3.2 | 3.2 | 0.00 | 2.34 | 2.34 | 92 | 1030.3 |
| 20260507013120 | 6 | 303 | 4.8 | 4.8 | 0.00 | 2.34 | 2.34 | 93 | 1030.5 |
| 20260507012618 | 6 | 45 | 0.0 | 1.6 | 0.00 | 2.34 | 2.34 | 93 | 1030.3 |
| 20260507012113 | 6 | 351 | 1.6 | 3.2 | 0.00 | 2.34 | 2.34 | 92 | 1030.4 |
| 20260507011612 | 6 | 358 | 1.6 | 3.2 | 0.00 | 2.34 | 2.34 | 91 | 1030.5 |
| 20260507011107 | 6 | 295 | 9.7 | 12.9 | 0.00 | 2.34 | 2.34 | 92 | 1030.3 |
| 20260507010602 | 6 | 297 | 4.8 | 8.0 | 0.00 | 2.34 | 2.34 | 93 | 1030.1 |
| 20260507010058 | 6 | 273 | 11.3 | 14.5 | 0.00 | 2.34 | 2.34 | 95 | 1030.1 |
| 20260507005556 | 6 | 254 | 4.8 | 8.0 | 0.00 | 2.34 | 2.34 | 96 | 1030.1 |
| 20260507005052 | 7 | 348 | 1.6 | 3.2 | 0.00 | 2.34 | 2.34 | 96 | 1030.0 |
| 20260507004549 | 7 | 308 | 4.8 | 4.8 | 0.00 | 2.34 | 2.34 | 96 | 1029.7 |
| 20260507004047 | 7 | 303 | 3.2 | 3.2 | 0.00 | 2.34 | 2.34 | 97 | 1029.9 |
| 20260507003542 | 7 | 296 | 0.0 | 1.6 | 0.00 | 2.34 | 2.34 | 98 | 1029.7 |
| 20260507003038 | 7 | 29 | 0.0 | 1.6 | 0.00 | 2.34 | 2.34 | 98 | 1029.7 |
| 20260507002535 | 7 | 336 | 1.6 | 3.2 | 0.00 | 2.34 | 2.34 | 98 | 1029.6 |
| 20260507002030 | 7 | 46 | 0.0 | 0.0 | 0.00 | 2.34 | 2.34 | 99 | 1029.5 |
| 20260507001527 | 7 | 342 | 3.2 | 4.8 | 0.00 | 2.34 | 2.34 | 99 | 1029.5 |
| 20260507001025 | 7 | 48 | 0.0 | 0.0 | 0.00 | 2.34 | 2.34 | 99 | 1029.5 |
| 20260507000521 | 7 | 46 | 0.0 | 0.0 | 0.00 | 2.34 | 2.34 | 99 | 1029.6 |
| 20260507000016 | 7 | 45 | 1.6 | 1.6 | 0.00 | 2.34 | 2.34 | 99 | 1029.3 |
| 20260506235514 | 7 | 49 | 0.0 | 0.0 | 0.00 | 2.34 | 2.34 | 98 | 1029.1 |
| 20260506235009 | 7 | 47 | 0.0 | 0.0 | 0.00 | 2.34 | 2.34 | 98 | 1029.2 |
| 20260506234507 | 7 | 41 | 0.0 | 0.0 | 0.00 | 2.34 | 2.34 | 98 | 1029.2 |
| 20260506234004 | 7 | 36 | 1.6 | 1.6 | 0.00 | 2.34 | 2.34 | 98 | 1029.3 |
| 20260506233501 | 7 | 31 | 0.0 | 1.6 | 0.00 | 2.34 | 2.34 | 98 | 1029.2 |
| 20260506232957 | 7 | 74 | 0.0 | 0.0 | 0.00 | 2.34 | 2.34 | 98 | 1028.9 |
| 20260506232454 | 7 | 75 | 0.0 | 0.0 | 0.00 | 2.34 | 2.34 | 98 | 1029.1 |
| 20260506231950 | 7 | 75 | 0.0 | 0.0 | 0.00 | 2.34 | 2.34 | 98 | 1029.0 |
| 20260506231447 | 7 | 75 | 0.0 | 0.0 | 0.00 | 2.34 | 2.34 | 97 | 1029.1 |
| 20260506230944 | 7 | 76 | 0.0 | 0.0 | 0.00 | 2.34 | 2.34 | 97 | 1029.0 |
| 20260506230440 | 7 | 75 | 0.0 | 0.0 | 0.00 | 2.34 | 2.34 | 97 | 1028.9 |
| 20260506225937 | 7 | 75 | 0.0 | 0.0 | 0.00 | 2.34 | 2.34 | 96 | 1029.0 |
| 20260506225435 | 7 | 70 | 0.0 | 0.0 | 0.00 | 2.34 | 2.34 | 96 | 1029.0 |
| 20260506224931 | 7 | 61 | 1.6 | 1.6 | 0.00 | 2.34 | 2.34 | 96 | 1029.0 |
| 20260506224429 | 7 | 56 | 0.0 | 0.0 | 0.00 | 2.34 | 2.34 | 96 | 1028.7 |
| 20260506223925 | 7 | 64 | 0.0 | 0.0 | 0.00 | 2.34 | 2.34 | 95 | 1028.7 |
| 20260506223420 | 7 | 72 | 0.0 | 0.0 | 0.00 | 2.34 | 2.34 | 96 | 1028.7 |
| 20260506222918 | 7 | 76 | 0.0 | 0.0 | 0.00 | 2.34 | 2.34 | 95 | 1028.6 |
| 20260506222414 | 7 | 90 | 0.0 | 0.0 | 0.00 | 2.34 | 2.34 | 95 | 1028.6 |
| 20260506221911 | 7 | 73 | 0.0 | 0.0 | 0.00 | 2.34 | 2.34 | 96 | 1028.5 |
| 20260506221408 | 7 | 72 | 0.0 | 0.0 | 0.00 | 2.34 | 2.34 | 96 | 1028.3 |
| 20260506220906 | 7 | 75 | 0.0 | 0.0 | 0.00 | 2.34 | 2.34 | 97 | 1028.5 |
| 20260506220401 | 7 | 78 | 0.0 | 0.0 | 0.00 | 2.34 | 2.34 | 97 | 1028.3 |
| 20260506215858 | 7 | 78 | 0.0 | 0.0 | 0.00 | 2.34 | 2.34 | 97 | 1028.2 |
| 20260506215354 | 7 | 82 | 0.0 | 0.0 | 0.00 | 2.34 | 2.34 | 97 | 1028.6 |
| 20260506214850 | 7 | 85 | 0.0 | 0.0 | 0.00 | 2.34 | 2.34 | 97 | 1028.5 |
| 20260506214347 | 7 | 89 | 0.0 | 1.6 | 0.00 | 2.34 | 2.34 | 97 | 1028.8 |
| 20260506213845 | 7 | 82 | 0.0 | 0.0 | 0.00 | 2.34 | 2.34 | 97 | 1028.7 |
| 20260506213342 | 7 | 86 | 0.0 | 0.0 | 0.00 | 2.34 | 2.34 | 97 | 1028.5 |
| 20260506212839 | 7 | 72 | 0.0 | 0.0 | 0.00 | 2.34 | 2.34 | 97 | 1028.7 |
| 20260506212336 | 7 | 78 | 0.0 | 0.0 | 0.00 | 2.34 | 2.34 | 97 | 1028.5 |
| 20260506211830 | 7 | 153 | 1.6 | 1.6 | 0.00 | 2.34 | 2.34 | 97 | 1028.5 |
| 20260506211327 | 7 | 234 | 4.8 | 8.0 | 0.00 | 2.34 | 2.34 | 96 | 1028.5 |
| 20260506210824 | 7 | 335 | 0.0 | 1.6 | 0.00 | 2.34 | 2.34 | 94 | 1028.5 |
| 20260506210321 | 7 | 23 | 0.0 | 0.0 | 0.00 | 2.34 | 2.34 | 94 | 1028.6 |
| 20260506205818 | 7 | 16 | 1.6 | 1.6 | 0.00 | 2.34 | 2.34 | 94 | 1028.5 |
| 20260506205314 | 7 | 49 | 0.0 | 1.6 | 0.00 | 2.34 | 2.34 | 95 | 1028.6 |
| 20260506204810 | 7 | 52 | 0.0 | 0.0 | 0.00 | 2.34 | 2.34 | 95 | 1028.4 |
| 20260506204308 | 7 | 42 | 0.0 | 0.0 | 0.00 | 2.34 | 2.34 | 95 | 1028.3 |
| 20260506203806 | 7 | 27 | 0.0 | 0.0 | 0.00 | 2.34 | 2.34 | 96 | 1028.2 |
| 20260506203303 | 7 | 41 | 1.6 | 1.6 | 0.00 | 2.34 | 2.34 | 97 | 1028.6 |
| 20260506202800 | 7 | 34 | 3.2 | 4.8 | 0.00 | 2.34 | 2.34 | 97 | 1028.4 |
| 20260506202257 | 7 | 54 | 1.6 | 3.2 | 0.00 | 2.34 | 2.34 | 98 | 1028.5 |
| 20260506201753 | 7 | 18 | 1.6 | 3.2 | 0.00 | 2.34 | 2.34 | 98 | 1028.4 |
| 20260506201250 | 7 | 32 | 0.0 | 1.6 | 0.00 | 2.34 | 2.34 | 98 | 1028.6 |
| 20260506200747 | 7 | 46 | 1.6 | 1.6 | 0.00 | 2.34 | 2.34 | 99 | 1028.5 |
| 20260506200243 | 7 | 44 | 3.2 | 3.2 | 0.00 | 2.34 | 2.34 | 99 | 1028.3 |
| 20260506195740 | 6 | 49 | 0.0 | 1.6 | 0.00 | 2.34 | 2.34 | 99 | 1028.1 |
| 20260506195236 | 7 | 41 | 0.0 | 0.0 | 0.00 | 2.34 | 2.34 | 99 | 1028.1 |
| 20260506194734 | 7 | 35 | 3.2 | 3.2 | 0.00 | 2.34 | 2.34 | 99 | 1028.4 |
| 20260506194230 | 7 | 47 | 4.8 | 4.8 | 0.00 | 2.34 | 2.34 | 99 | 1028.2 |
| 20260506193728 | 6 | 16 | 1.6 | 1.6 | 0.00 | 2.34 | 2.34 | 99 | 1028.0 |
| 20260506193225 | 6 | 45 | 1.6 | 1.6 | 0.00 | 2.34 | 2.34 | 99 | 1028.4 |
| 20260506192721 | 6 | 50 | 3.2 | 3.2 | 0.00 | 2.34 | 2.34 | 99 | 1028.1 |
| 20260506192218 | 7 | 30 | 6.4 | 9.7 | 0.00 | 2.34 | 2.34 | 99 | 1028.1 |
| 20260506191715 | 6 | 37 | 1.6 | 1.6 | 0.00 | 2.34 | 2.34 | 99 | 1028.3 |
| 20260506191211 | 6 | 31 | 1.6 | 1.6 | 0.00 | 2.34 | 2.34 | 99 | 1028.1 |
| 20260506190708 | 6 | 70 | 1.6 | 3.2 | 0.00 | 2.34 | 2.34 | 99 | 1028.3 |
| 20260506190204 | 6 | 48 | 1.6 | 3.2 | 0.18 | 2.34 | 2.34 | 99 | 1028.0 |
| 20260506185702 | 6 | 49 | 0.0 | 0.0 | 0.18 | 2.34 | 2.34 | 99 | 1028.1 |
| 20260506185158 | 6 | 52 | 0.0 | 0.0 | 0.00 | 2.31 | 2.31 | 99 | 1027.7 |
| 20260506184650 | 6 | 48 | 0.0 | 0.0 | 0.00 | 2.31 | 2.31 | 99 | 1027.8 |
| 20260506184147 | 6 | 59 | 0.0 | 1.6 | 0.00 | 2.31 | 2.31 | 99 | 1027.8 |
| 20260506183644 | 6 | 45 | 0.0 | 0.0 | 0.00 | 2.31 | 2.31 | 99 | 1028.0 |
| 20260506183140 | 6 | 36 | 0.0 | 0.0 | 0.00 | 2.31 | 2.31 | 99 | 1027.8 |
| 20260506182637 | 6 | 48 | 0.0 | 0.0 | 0.00 | 2.31 | 2.31 | 99 | 1027.8 |
| 20260506182134 | 6 | 43 | 0.0 | 1.6 | 0.00 | 2.31 | 2.31 | 99 | 1027.7 |
| 20260506181632 | 6 | 39 | 3.2 | 4.8 | 0.00 | 2.31 | 2.31 | 99 | 1027.6 |
| 20260506181129 | 6 | 46 | 0.0 | 1.6 | 0.00 | 2.31 | 2.31 | 99 | 1027.7 |
| 20260506180626 | 6 | 69 | 0.0 | 0.0 | 0.00 | 2.31 | 2.31 | 99 | 1027.8 |
| 20260506180122 | 6 | 56 | 1.6 | 3.2 | 0.00 | 2.31 | 2.31 | 99 | 1027.7 |
| 20260506175619 | 6 | 7 | 1.6 | 3.2 | 0.00 | 2.31 | 2.31 | 99 | 1027.8 |
| 20260506175114 | 6 | 10 | 1.6 | 1.6 | 0.00 | 2.31 | 2.31 | 99 | 1027.7 |
| 20260506174614 | 6 | 10 | 0.0 | 0.0 | 0.00 | 2.31 | 2.31 | 99 | 1027.6 |
| 20260506174110 | 6 | 345 | 0.0 | 0.0 | 0.00 | 2.31 | 2.31 | 99 | 1027.5 |
| 20260506173608 | 6 | 35 | 0.0 | 0.0 | 0.00 | 2.31 | 2.31 | 99 | 1027.6 |
| 20260506173104 | 6 | 43 | 1.6 | 3.2 | 0.00 | 2.31 | 2.31 | 99 | 1027.3 |
| 20260506172602 | 6 | 38 | 0.0 | 0.0 | 0.00 | 2.31 | 2.31 | 99 | 1027.5 |
| 20260506172057 | 6 | 63 | 0.0 | 0.0 | 0.00 | 2.31 | 2.31 | 99 | 1027.2 |
| 20260506171555 | 6 | 63 | 0.0 | 0.0 | 0.00 | 2.31 | 2.31 | 99 | 1027.1 |
| 20260506171052 | 6 | 60 | 1.6 | 1.6 | 0.00 | 2.31 | 2.31 | 99 | 1027.2 |
| 20260506170544 | 6 | 61 | 0.0 | 0.0 | 0.00 | 2.31 | 2.31 | 99 | 1027.1 |
| 20260506170041 | 6 | 64 | 0.0 | 0.0 | 0.00 | 2.31 | 2.31 | 99 | 1027.0 |
| 20260506165540 | 6 | 62 | 0.0 | 0.0 | 0.00 | 2.31 | 2.31 | 99 | 1027.2 |
| 20260506165036 | 6 | 64 | 0.0 | 0.0 | 0.00 | 2.31 | 2.31 | 99 | 1026.9 |
| 20260506164533 | 6 | 66 | 0.0 | 0.0 | 0.00 | 2.31 | 2.31 | 99 | 1027.0 |
| 20260506164030 | 6 | 67 | 0.0 | 0.0 | 0.00 | 2.31 | 2.31 | 99 | 1027.0 |
| 20260506163526 | 6 | 64 | 0.0 | 0.0 | 0.00 | 2.31 | 2.31 | 99 | 1027.2 |
| 20260506163022 | 6 | 68 | 0.0 | 1.6 | 0.00 | 2.31 | 2.31 | 99 | 1027.0 |
| 20260506162518 | 6 | 44 | 1.6 | 1.6 | 0.00 | 2.31 | 2.31 | 99 | 1027.0 |
| 20260506162015 | 6 | 63 | 1.6 | 3.2 | 0.00 | 2.31 | 2.31 | 99 | 1026.9 |
| 20260506161513 | 6 | 60 | 0.0 | 1.6 | 0.00 | 2.31 | 2.31 | 99 | 1026.9 |
| 20260506161010 | 6 | 66 | 0.0 | 0.0 | 0.00 | 2.31 | 2.31 | 99 | 1026.9 |
| 20260506160507 | 6 | 75 | 0.0 | 1.6 | 0.00 | 2.31 | 2.31 | 99 | 1026.7 |
| 20260506160005 | 6 | 66 | 0.0 | 0.0 | 0.00 | 2.31 | 2.31 | 99 | 1026.8 |
| 20260506155502 | 6 | 59 | 0.0 | 0.0 | 0.00 | 2.31 | 2.31 | 99 | 1027.2 |
| 20260506153634 | 6 | 67 | 0.0 | 0.0 | 0.13 | 2.31 | 2.31 | 99 | 1027.2 |
| 20260506153131 | 6 | 59 | 0.0 | 0.0 | 0.00 | 2.29 | 2.29 | 99 | 1027.1 |
| 20260506152628 | 6 | 55 | 0.0 | 1.6 | 0.18 | 2.29 | 2.29 | 99 | 1027.3 |
| 20260506152126 | 6 | 58 | 0.0 | 0.0 | 0.18 | 2.29 | 2.29 | 99 | 1027.3 |
| 20260506151625 | 5 | 55 | 1.6 | 1.6 | 0.00 | 2.26 | 2.26 | 99 | 1027.2 |
| 20260506151121 | 5 | 61 | 0.0 | 0.0 | 0.13 | 2.26 | 2.26 | 99 | 1027.3 |
| 20260506150618 | 5 | 57 | 0.0 | 0.0 | 0.13 | 2.26 | 2.26 | 99 | 1027.0 |
| 20260506150115 | 5 | 59 | 0.0 | 0.0 | 0.00 | 2.24 | 2.24 | 99 | 1027.0 |
| 20260506145612 | 5 | 54 | 0.0 | 0.0 | 0.00 | 2.24 | 2.24 | 99 | 1027.0 |
| 20260506145109 | 5 | 55 | 0.0 | 0.0 | 0.18 | 2.24 | 2.24 | 99 | 1026.9 |
| 20260506144606 | 5 | 42 | 1.6 | 3.2 | 0.18 | 2.24 | 2.24 | 99 | 1026.7 |
| 20260506144102 | 5 | 66 | 0.0 | 0.0 | 0.18 | 2.24 | 2.24 | 99 | 1026.7 |
| 20260506143600 | 5 | 61 | 0.0 | 0.0 | 0.00 | 2.21 | 2.21 | 99 | 1026.9 |
| 20260506143058 | 5 | 62 | 0.0 | 0.0 | 0.00 | 2.21 | 2.21 | 99 | 1026.7 |
| 20260506142556 | 5 | 61 | 0.0 | 0.0 | 0.13 | 2.21 | 2.21 | 99 | 1026.5 |
| 20260506142054 | 5 | 61 | 0.0 | 0.0 | 0.13 | 2.21 | 2.21 | 99 | 1026.5 |
| 20260506141551 | 5 | 54 | 0.0 | 0.0 | 0.00 | 2.18 | 2.18 | 99 | 1026.4 |
| 20260506141050 | 5 | 60 | 0.0 | 0.0 | 0.00 | 2.18 | 2.18 | 99 | 1026.7 |
| 20260506140547 | 5 | 58 | 0.0 | 0.0 | 0.00 | 2.18 | 2.18 | 99 | 1026.4 |
| 20260506140044 | 5 | 52 | 0.0 | 0.0 | 0.00 | 2.18 | 2.18 | 99 | 1026.6 |
| 20260506135540 | 5 | 64 | 0.0 | 0.0 | 0.00 | 2.18 | 2.18 | 99 | 1026.3 |
| 20260506135036 | 5 | 102 | 0.0 | 0.0 | 0.00 | 2.18 | 2.18 | 99 | 1026.4 |
| 20260506134533 | 5 | 61 | 0.0 | 0.0 | 0.00 | 2.18 | 2.18 | 99 | 1026.6 |
| 20260506134029 | 5 | 63 | 0.0 | 0.0 | 0.00 | 2.18 | 2.18 | 99 | 1026.7 |
| 20260506133526 | 5 | 62 | 0.0 | 0.0 | 0.00 | 2.18 | 2.18 | 99 | 1026.5 |
| 20260506133023 | 5 | 58 | 0.0 | 0.0 | 0.18 | 2.18 | 2.18 | 99 | 1026.5 |
| 20260506132520 | 5 | 54 | 0.0 | 0.0 | 0.18 | 2.18 | 2.18 | 99 | 1026.6 |
| 20260506132018 | 5 | 59 | 0.0 | 0.0 | 0.00 | 2.16 | 2.16 | 99 | 1026.4 |
| 20260506131515 | 5 | 7 | 0.0 | 3.2 | 0.00 | 2.16 | 2.16 | 99 | 1026.5 |
| 20260506131011 | 5 | 26 | 4.8 | 4.8 | 0.00 | 2.16 | 2.16 | 99 | 1026.6 |
| 20260506130508 | 5 | 58 | 0.0 | 0.0 | 0.00 | 2.16 | 2.16 | 99 | 1026.5 |
| 20260506130006 | 5 | 57 | 0.0 | 0.0 | 0.18 | 2.16 | 2.16 | 99 | 1026.5 |
| 20260506125504 | 5 | 56 | 0.0 | 0.0 | 0.18 | 2.16 | 2.16 | 99 | 1026.4 |
| 20260506125001 | 5 | 61 | 0.0 | 0.0 | 0.13 | 2.13 | 2.13 | 99 | 1026.4 |
| 20260506124459 | 5 | 60 | 0.0 | 0.0 | 0.13 | 2.13 | 2.13 | 99 | 1026.4 |
| 20260506123957 | 5 | 57 | 0.0 | 0.0 | 0.18 | 2.11 | 2.11 | 99 | 1026.5 |
| 20260506123454 | 5 | 64 | 0.0 | 0.0 | 0.30 | 2.11 | 2.11 | 99 | 1026.7 |
| 20260506122952 | 5 | 60 | 0.0 | 1.6 | 0.43 | 2.08 | 2.08 | 99 | 1026.4 |
| 20260506122448 | 5 | 55 | 1.6 | 1.6 | 0.48 | 2.06 | 2.06 | 99 | 1027.0 |
| 20260506121947 | 5 | 58 | 0.0 | 1.6 | 0.61 | 2.03 | 2.03 | 99 | 1027.0 |
| 20260506121444 | 5 | 77 | 0.0 | 0.0 | 0.89 | 1.98 | 1.98 | 99 | 1026.7 |
| 20260506120940 | 5 | 58 | 0.0 | 0.0 | 0.61 | 1.93 | 1.93 | 99 | 1026.9 |
| 20260506120438 | 5 | 63 | 0.0 | 0.0 | 0.36 | 1.85 | 1.85 | 99 | 1026.9 |
| 20260506115935 | 5 | 55 | 1.6 | 3.2 | 0.30 | 1.83 | 1.83 | 99 | 1026.5 |
| 20260506115433 | 5 | 59 | 0.0 | 1.6 | 0.13 | 1.80 | 1.80 | 99 | 1026.6 |
| 20260506114931 | 5 | 60 | 0.0 | 1.6 | 0.18 | 1.78 | 1.78 | 99 | 1026.2 |
| 20260506114428 | 5 | 60 | 3.2 | 4.8 | 0.30 | 1.78 | 1.78 | 99 | 1026.3 |
| 20260506113927 | 5 | 55 | 3.2 | 3.2 | 0.13 | 1.75 | 1.75 | 99 | 1026.3 |
| 20260506113425 | 5 | 57 | 1.6 | 1.6 | 0.30 | 1.75 | 1.75 | 99 | 1026.2 |
| 20260506112921 | 5 | 63 | 0.0 | 1.6 | 0.30 | 1.73 | 1.73 | 99 | 1026.3 |
| 20260506112419 | 5 | 53 | 0.0 | 0.0 | 0.13 | 1.70 | 1.70 | 99 | 1026.0 |
| 20260506111916 | 5 | 56 | 1.6 | 1.6 | 0.18 | 1.68 | 1.68 | 99 | 1026.2 |
| 20260506111414 | 5 | 52 | 1.6 | 3.2 | 0.30 | 1.68 | 1.68 | 99 | 1026.3 |
| 20260506110910 | 5 | 60 | 0.0 | 0.0 | 0.13 | 1.65 | 1.65 | 99 | 1026.2 |
| 20260506110408 | 5 | 54 | 0.0 | 1.6 | 0.13 | 1.65 | 1.65 | 99 | 1026.6 |
| 20260506105904 | 5 | 51 | 0.0 | 1.6 | 0.18 | 1.63 | 1.63 | 99 | 1025.9 |
| 20260506105401 | 5 | 55 | 0.0 | 0.0 | 0.13 | 1.60 | 1.60 | 99 | 1026.2 |
| 20260506104858 | 5 | 43 | 3.2 | 4.8 | 0.30 | 1.60 | 1.60 | 99 | 1026.3 |
| 20260506104356 | 5 | 49 | 1.6 | 1.6 | 0.30 | 1.60 | 1.60 | 99 | 1025.9 |
| 20260506103854 | 5 | 53 | 1.6 | 1.6 | 0.36 | 1.57 | 1.57 | 99 | 1026.2 |
| 20260506103351 | 5 | 40 | 3.2 | 4.8 | 0.30 | 1.55 | 1.55 | 99 | 1025.9 |
| 20260506102848 | 6 | 58 | 0.0 | 3.2 | 0.30 | 1.52 | 1.52 | 99 | 1025.9 |
| 20260506102346 | 6 | 55 | 1.6 | 1.6 | 0.48 | 1.50 | 1.50 | 99 | 1026.2 |
| 20260506101843 | 6 | 48 | 0.0 | 0.0 | 0.30 | 1.45 | 1.45 | 99 | 1026.2 |
| 20260506101339 | 6 | 62 | 0.0 | 0.0 | 0.30 | 1.42 | 1.42 | 99 | 1026.2 |
| 20260506100837 | 6 | 63 | 0.0 | 0.0 | 0.48 | 1.40 | 1.40 | 99 | 1026.3 |
| 20260506100335 | 6 | 54 | 0.0 | 1.6 | 0.43 | 1.37 | 1.37 | 99 | 1025.9 |
| 20260506095833 | 6 | 27 | 0.0 | 1.6 | 0.13 | 1.32 | 1.32 | 99 | 1026.0 |
| 20260506095330 | 6 | 26 | 1.6 | 3.2 | 0.30 | 1.30 | 1.30 | 99 | 1026.0 |
| 20260506094826 | 6 | 30 | 8.0 | 9.7 | 0.48 | 1.30 | 1.30 | 99 | 1025.6 |
| 20260506094326 | 6 | 56 | 0.0 | 0.0 | 0.61 | 1.27 | 1.27 | 99 | 1025.6 |
| 20260506093823 | 6 | 57 | 0.0 | 0.0 | 0.61 | 1.22 | 1.22 | 99 | 1025.8 |
| 20260506093320 | 6 | 59 | 0.0 | 0.0 | 0.48 | 1.17 | 1.17 | 99 | 1025.5 |
| 20260506092818 | 6 | 61 | 0.0 | 0.0 | 0.48 | 1.12 | 1.12 | 99 | 1025.7 |
| 20260506092315 | 6 | 37 | 0.0 | 0.0 | 0.79 | 1.12 | 1.12 | 99 | 1025.9 |
| 20260506091812 | 6 | 63 | 0.0 | 0.0 | 0.48 | 1.07 | 1.07 | 99 | 1026.2 |
| 20260506091310 | 6 | 57 | 0.0 | 0.0 | 0.13 | 0.99 | 0.99 | 99 | 1025.7 |
| 20260506090808 | 6 | 51 | 0.0 | 0.0 | 0.13 | 0.99 | 0.99 | 99 | 1025.6 |
| 20260506090304 | 6 | 58 | 0.0 | 0.0 | 0.18 | 0.97 | 0.97 | 99 | 1025.4 |
| 20260506085801 | 6 | 57 | 0.0 | 0.0 | 0.30 | 0.97 | 0.97 | 99 | 1026.0 |
| 20260506085257 | 6 | 60 | 0.0 | 0.0 | 0.30 | 0.94 | 0.94 | 99 | 1026.2 |
| 20260506084754 | 6 | 53 | 0.0 | 0.0 | 0.30 | 0.94 | 0.94 | 99 | 1026.2 |
| 20260506084250 | 6 | 61 | 0.0 | 0.0 | 0.36 | 0.91 | 0.91 | 99 | 1026.2 |
| 20260506083747 | 6 | 54 | 0.0 | 0.0 | 0.30 | 0.89 | 0.89 | 99 | 1026.3 |
| 20260506083245 | 6 | 57 | 1.6 | 1.6 | 0.30 | 0.86 | 0.86 | 99 | 1026.2 |
| 20260506082743 | 7 | 48 | 0.0 | 0.0 | 0.18 | 0.84 | 0.84 | 99 | 1026.3 |
| 20260506082237 | 7 | 58 | 0.0 | 0.0 | 0.13 | 0.81 | 0.81 | 99 | 1026.5 |
| 20260506081736 | 7 | 48 | 0.0 | 0.0 | 0.13 | 0.81 | 0.81 | 99 | 1026.6 |
| 20260506081233 | 7 | 64 | 0.0 | 0.0 | 0.18 | 0.79 | 0.79 | 99 | 1026.5 |
| 20260506080731 | 7 | 39 | 0.0 | 0.0 | 0.30 | 0.79 | 0.79 | 99 | 1026.5 |
| 20260506080227 | 7 | 63 | 0.0 | 0.0 | 0.30 | 0.76 | 0.76 | 99 | 1026.4 |
| 20260506073211 | 7 | 54 | 0.0 | 0.0 | 0.79 | 0.58 | 0.58 | 99 | 1026.5 |
| 20260506072708 | 7 | 33 | 0.0 | 0.0 | 0.71 | 0.53 | 0.53 | 99 | 1026.4 |
| 20260506072206 | 7 | 49 | 0.0 | 0.0 | 0.48 | 0.46 | 0.46 | 99 | 1026.4 |
| 20260506071703 | 7 | 47 | 0.0 | 0.0 | 0.43 | 0.43 | 0.43 | 99 | 1026.3 |
| 20260506071201 | 7 | 42 | 0.0 | 0.0 | 0.30 | 0.38 | 0.38 | 99 | 1026.3 |
| 20260506070657 | 7 | 63 | 0.0 | 0.0 | 0.18 | 0.36 | 0.36 | 99 | 1026.0 |